#timestamp,LO_Frequency,Hit 
1506211215.7,286046999.8,N
1506211235.5,286047000.0,N
1506211255.3,286047000.1,N
1506211275.2,286047001.1,N
1506211295.9,286047000.2,N
1506211315.7,286047000.5,N
1506211335.6,286047002.7,N
1506211355.4,286047002.8,N
1506211375.2,286046998.5,N
1506211395.0,286047000.9,N
1506211395.9,286047000.9,N
1506211415.8,286047000.1,N
1506211435.6,286046998.3,N
1506211455.4,286046999.4,N
1506211475.3,286047000.2,N
1506211495.1,286047001.4,N
1506211515.8,286047001.6,N
1506211535.7,286047004.1,N
1506211555.5,286047003.1,N
1506211575.3,286047003.2,N
1506211595.2,286047001.8,N
1506211615.9,286047001.8,N
1506211635.7,286047002.0,N
1506211655.6,286047002.0,N
1506211675.4,286046999.7,N
1506211695.2,286046998.2,N
1506211715.0,286047001.2,N
1506211715.9,286047001.2,N
1506211735.8,286047000.0,N
1506211755.6,286047001.6,N
1506211775.4,286047000.1,N
1506211795.3,286047002.4,N
1506211815.1,286047003.4,N
1506211835.8,286047003.2,N
1506211855.7,286047004.3,N
1506211875.5,286047002.6,N
1506211895.3,286047002.6,N
1506211915.2,286047001.5,N
1506211935.9,286047002.6,N
1506211955.7,286047002.1,N
1506211975.6,286047003.7,N
1506211995.4,286047004.1,N
1506212015.2,286047002.5,N
1506212035.0,286047003.7,N
1506212036.0,286047003.7,N
1506212055.8,286047003.1,N
1506212075.6,286047005.9,P
1506212095.5,286047001.3,N
1506212115.3,286047004.3,N
1506212135.1,286047003.8,N
1506212155.9,286047001.6,N
1506212175.7,286047005.5,P
1506212195.5,286046999.8,N
1506212215.4,286046998.2,N
1506212235.2,286046999.4,N
1506212255.0,286046998.1,N
1506212255.9,286046998.1,N
1506212275.8,286047001.2,N
1506212295.6,286046998.3,N
1506212315.4,286046996.5,N
1506212335.2,286046995.2,N
1506212355.1,286046998.4,N
1506212356.0,286046998.4,N
1506212375.8,286046999.4,N
1506212395.6,286046996.5,N
1506212415.5,286046999.1,N
1506212435.3,286046997.5,N
1506212455.1,286047000.7,N
1506212475.9,286047000.0,N
1506212495.7,286047000.2,N
1506212515.5,286047000.8,N
1506212535.4,286046999.4,N
1506212555.2,286046997.6,N
1506212575.0,286046994.9,N
1506212575.9,286046994.9,N
1506212595.7,286046998.8,N
1506212615.6,286046998.9,N
1506212635.4,286046997.8,N
1506212655.2,286046995.6,N
1506212675.1,286046999.2,N
1506212676.0,286046999.2,N
1506212695.8,286046997.8,N
1506212715.6,286046999.6,N
1506212735.5,286047001.0,N
1506212755.3,286047004.4,N
1506212775.1,286047000.6,N
1506212795.9,286047000.0,N
1506212815.7,286046998.4,N
1506212835.5,286047000.1,N
1506212855.4,286046999.9,N
1506212875.2,286047001.4,N
1506212895.0,286046999.9,N
1506212895.9,286046999.9,N
1506212915.7,286047001.1,N
1506212935.6,286047004.1,N
1506212955.4,286047003.1,N
1506212975.2,286047002.7,N
1506212995.1,286047000.5,N
1506212996.0,286047000.5,N
1506213015.8,286046998.6,N
1506213035.6,286046998.4,N
1506213055.5,286047001.0,N
1506213075.3,286047000.4,N
1506213095.1,286046999.7,N
1506213115.9,286047002.0,N
1506213135.7,286046999.7,N
1506213155.5,286047004.1,N
1506213175.4,286047005.7,N
1506213195.2,286047004.6,N
1506213215.0,286047005.1,N
1506213215.9,286047005.1,N
1506213235.8,286047004.2,N
1506213255.6,286047004.1,N
1506213275.4,286047002.9,N
1506213295.2,286047004.4,N
1506213315.1,286047004.2,N
1506213316.0,286047004.2,N
1506213335.8,286047001.6,N
1506213355.6,286047002.4,N
1506213375.5,286047002.8,N
1506213395.3,286047001.2,N
1506213415.1,286046999.7,N
1506213435.9,286047002.7,N
1506213455.7,286047000.4,N
1506213475.5,286047000.4,N
1506213495.4,286046999.9,N
1506213515.2,286046998.1,N
1506213535.0,286047002.0,N
1506213535.9,286047002.0,N
1506213555.8,286047007.8,P
1506213575.6,286047011.5,P
1506213595.4,286047012.1,P
1506213615.3,286047006.1,N
1506213635.1,286047005.1,N
1506213636.0,286047005.1,N
1506213655.8,286047002.0,N
1506213675.7,286047000.3,N
1506213695.5,286046998.2,N
1506213715.3,286047001.0,N
1506213735.1,286046999.7,N
1506213755.9,286047005.2,N
1506213775.7,286047005.7,N
1506213795.5,286047006.9,N
1506213815.4,286047009.3,N
1506213835.2,286047012.0,P
1506213855.0,286047005.4,N
1506213856.0,286047005.4,N
1506213875.8,286047000.2,N
1506213895.6,286046998.7,N
1506213915.4,286046996.6,N
1506213935.3,286047000.5,N
1506213955.1,286046998.6,N
1506213975.8,286047000.3,N
1506213995.7,286047001.1,N
1506214015.5,286047002.1,N
1506214035.3,286047004.5,N
1506214055.2,286047005.1,N
1506214075.9,286047002.9,N
1506214095.7,286047002.2,N
1506214115.6,286046998.6,N
1506214135.4,286046996.5,N
1506214155.2,286046999.3,N
1506214175.0,286047001.7,N
1506214175.9,286047001.7,N
1506214195.8,286047007.0,N
1506214215.6,286047002.9,N
1506214235.4,286047003.8,N
1506214255.3,286047002.3,N
1506214275.1,286047003.4,N
1506214295.8,286047003.4,N
1506214315.7,286047002.4,N
1506214335.5,286047000.0,N
1506214355.3,286046998.1,N
1506214375.2,286046998.4,N
1506214395.9,286047004.9,N
1506214415.7,286047011.9,P
1506214435.6,286047013.8,N
1506214455.4,286047013.7,N
1506214475.2,286047011.0,N
1506214495.1,286047013.7,P
1506214496.0,286047013.7,P
1506214515.8,286046997.4,N
1506214535.6,286046994.0,N
1506214555.5,286046993.9,N
1506214575.3,286046997.3,N
1506214595.1,286046996.7,N
1506214615.9,286046996.8,N
1506214635.7,286046996.3,N
1506214655.5,286046993.0,N
1506214675.3,286046991.5,N
1506214695.2,286046992.9,N
1506214715.0,286046995.7,N
1506214715.9,286046995.7,N
1506214735.7,286046999.6,N
1506214755.6,286047000.8,N
1506214775.4,286047001.5,N
1506214795.2,286047005.9,N
